Weather History for HKMO - September, 2012

Change the Weather History Date:

Sunday, September 9, 2012

  Actual Average Record
Temperature  
Mean Temperature 78 °F -  
Max Temperature 85 °F 86 °F 86 °F (2004)
Min Temperature 71 °F 68 °F 68 °F (2000)
Cooling Degree Days 13    
Growing Degree Days 28 (Base 50)    
Moisture  
Dew Point 68 °F    
Average Humidity 74    
Maximum Humidity 88    
Minimum Humidity 48    
Precipitation  
Precipitation 0.00 in 0.10 in - ()
Sea Level Pressure  
Sea Level Pressure 30.02 in    
Wind  
Wind Speed 6 mph ()    
Max Wind Speed 16 mph    
Max Gust Speed -    
Visibility 7.7 miles    
Events      
Averages and records for this station are not official NWS values.
T = Trace of Precipitation, MM = Missing Value Source: Averaged Metar Reports

Daily Weather History Graph

Daily Weather History Graph

Search for Another Location

Airport or City:

Trip Planner

Search our weather history database for the weather conditions in past years. The results will help you decide how hot, cold, wet, or windy it might be!

Date:

Astronomy

Sep. 09, 2012 Rise Set
Actual Time 6:16 AM EAT 6:20 PM EAT
Civil Twilight 5:56 AM EAT 6:41 PM EAT
Nautical Twilight 5:32 AM EAT 7:05 PM EAT
Astronomical Twilight 5:07 AM EAT 7:29 PM EAT
Moon 12:33 AM EAT (9/9) 12:44 PM EAT (9/9)
Length of Visible Light 12h 45m
Length of Day
12h 03m
Last Quarter, 42% of the Moon is Illuminated
Sep 9
Last Quarter
Sep 16
New
Sep 22
First Quarter
Sep 30
Full
Oct 8
Last Quarter

Hourly Weather History & Observations

Time (EAT) Temp. Heat Index Dew Point Humidity Pressure Visibility Wind Dir Wind Speed Gust Speed Precip Events Conditions
12:00 AM 73.4 °F - 68.0 °F 83% 30.01 in 6.2 mi SSW 4.6 mph - N/A   Partly Cloudy
1:00 AM 71.6 °F - 68.0 °F 88% 30.01 in 6.2 mi SW 4.6 mph - N/A   Partly Cloudy
2:00 AM 71.6 °F - 68.0 °F 88% 30.01 in 6.2 mi SW 4.6 mph - N/A   Partly Cloudy
3:00 AM 72 °F - 68 °F 84% 30.00 in 19 mi SW 9.2 mph - -   Scattered Clouds
3:00 AM 71.6 °F - 68.0 °F 88% 30.01 in 6.2 mi SW 9.2 mph - N/A   Partly Cloudy
4:00 AM 71.6 °F - 68.0 °F 88% 30.01 in 6.2 mi SSW 4.6 mph - N/A   Partly Cloudy
5:00 AM 71.6 °F - 68.0 °F 88% 30.01 in 6.2 mi SSW 4.6 mph - N/A   Partly Cloudy
7:00 AM 71.6 °F - 68.0 °F 88% 30.04 in 6.2 mi Calm Calm - N/A   Partly Cloudy
8:00 AM 73.4 °F - 69.8 °F 88% 30.06 in 6.2 mi SW 5.8 mph - N/A   Partly Cloudy
9:00 AM 78.8 °F - 69.8 °F 74% 30.09 in 6.2 mi SSW 8.1 mph - N/A   Scattered Clouds
10:00 AM 82.4 °F 85.4 °F 68.0 °F 62% 30.09 in 6.2 mi SSE 8.1 mph - N/A   Scattered Clouds
11:00 AM 82.4 °F 84.6 °F 66.2 °F 58% 30.06 in 6.2 mi South 13.8 mph - N/A   Scattered Clouds
1:00 PM 86.0 °F 87.3 °F 64.4 °F 48% 30.01 in 6.2 mi South 11.5 mph - N/A   Partly Cloudy
2:00 PM 82.4 °F 85.4 °F 68.0 °F 62% 29.98 in 6.2 mi SSE 8.1 mph - N/A   Partly Cloudy
3:00 PM 83 °F - 67 °F 49% 29.98 in 19 mi SSE 10.4 mph - -   Scattered Clouds
3:00 PM 84.2 °F 86.6 °F 66.2 °F 55% 29.98 in 6.2 mi SSE 10.4 mph - N/A   Partly Cloudy
4:00 PM 82.4 °F 85.4 °F 68.0 °F 62% 29.98 in 6.2 mi SSE 16.1 mph - N/A   Partly Cloudy
5:00 PM 80.6 °F 83.2 °F 68.0 °F 65% 29.98 in 6.2 mi South 11.5 mph - N/A   Partly Cloudy
6:00 PM 78.8 °F - 69.8 °F 74% 29.98 in 6.2 mi SSE 10.4 mph - N/A   Partly Cloudy
7:00 PM 77.0 °F - 69.8 °F 78% 29.98 in 6.2 mi SSE 6.9 mph - N/A   Partly Cloudy
8:00 PM 77.0 °F - 69.8 °F 78% 30.01 in 6.2 mi South 6.9 mph - N/A   Partly Cloudy
9:00 PM 77 °F - 69 °F 71% 30.01 in 19 mi South 5.8 mph - -   Scattered Clouds
9:00 PM 77.0 °F - 69.8 °F 78% 30.01 in 6.2 mi South 5.8 mph - N/A   Partly Cloudy
10:00 PM 77.0 °F - 69.8 °F 78% 30.04 in 6.2 mi South 9.2 mph - N/A   Partly Cloudy
11:00 PM 77.0 °F - 69.8 °F 78% 30.04 in 6.2 mi South 10.4 mph - N/A   Partly Cloudy